Location: Krakow
(50.0830°N, 19.9170°E)
Time: 07:57:45
(UTC+01:00)

Transit 4A - All Passes

Search period start: 06 February 2023 00:00
Search period end: 16 February 2023 00:00
Orbit: 870 x 973 km, 66.8° (Epoch: 05 February)

Date Brightness Start Highest point End Pass type
(mag) Time Alt. Az. Time Alt. Az. Time Alt. Az.
06 Feb - 00:29:25 10° NNW 00:35:11 49° NE 00:41:04 10° ESE night (unlit)
06 Feb - 02:15:57 10° NW 02:21:29 41° WSW 02:27:07 10° S night (unlit)
06 Feb - 15:42:31 10° SSE 15:46:53 22° ESE 15:51:17 10° ENE daylight
06 Feb - 17:26:48 10° SW 17:32:37 77° NW 17:38:30 10° NE visible
06 Feb - 19:15:12 10° W 19:19:55 25° NNW 19:24:41 10° NNE visible
06 Feb - 21:05:02 10° NW 21:08:26 15° N 21:11:53 10° NE visible
06 Feb - 22:52:27 10° NNW 22:57:03 23° NNE 23:01:44 10° ENE visible
07 Feb - 00:38:36 10° NNW 00:44:32 65° NE 00:50:35 10° SE night (unlit)
07 Feb - 02:25:28 10° NW 02:30:30 29° WSW 02:35:39 10° SSW night (unlit)
07 Feb - 15:50:48 10° S 15:55:51 32° ESE 16:00:57 10° NE daylight
07 Feb - 17:36:11 10° SW 17:41:55 58° NW 17:47:42 10° NNE visible
07 Feb - 19:25:11 10° WNW 19:29:31 21° NNW 19:33:54 10° NNE visible
07 Feb - 21:14:44 10° NNW 21:18:12 16° N 21:21:41 10° NE visible
07 Feb - 23:01:40 10° NNW 23:06:38 27° NNE 23:11:42 10° E visible
08 Feb - 00:47:48 10° NW 00:53:48 86° NE 00:59:55 10° SE night (unlit)
08 Feb - 02:35:11 10° WNW 02:39:27 20° WSW 02:43:47 10° SSW night (unlit)
08 Feb - 15:59:23 10° S 16:04:53 45° ESE 16:10:25 10° NE daylight
08 Feb - 17:45:44 10° WSW 17:51:16 44° NW 17:56:53 10° NNE visible
08 Feb - 19:35:12 10° WNW 19:39:11 18° NNW 19:43:12 10° NNE visible
08 Feb - 21:24:17 10° NNW 21:27:56 16° N 21:31:38 10° NE visible
08 Feb - 23:10:50 10° NNW 23:16:10 33° NE 23:21:36 10° E visible
09 Feb - 00:57:04 10° NW 01:03:00 70° WSW 01:09:04 10° SSE night (unlit)
09 Feb - 02:45:24 10° WNW 02:48:20 14° WSW 02:51:18 10° SW night (unlit)
09 Feb - 14:26:58 10° ESE 14:28:48 12° E 14:30:39 10° E daylight
09 Feb - 16:08:16 10° SSW 16:13:59 64° ESE 16:19:46 10° NE daylight
09 Feb - 17:55:26 10° WSW 18:00:43 34° NW 18:06:03 10° NNE visible
09 Feb - 19:45:13 10° NW 19:48:53 17° N 19:52:36 10° NNE visible
09 Feb - 21:33:41 10° NNW 21:37:39 18° NNE 21:41:41 10° ENE visible
09 Feb - 23:20:00 10° NNW 23:25:37 42° NE 23:31:21 10° ESE visible
10 Feb - 01:06:22 10° NW 01:12:08 51° WSW 01:18:01 10° S night (unlit)
10 Feb - 14:33:58 10° SE 14:37:39 18° ESE 14:41:21 10° ENE daylight
10 Feb - 16:17:20 10° SSW 16:23:09 87° SE 16:29:02 10° NE daylight
10 Feb - 18:05:16 10° W 18:10:13 28° NNW 18:15:14 10° NNE visible
10 Feb - 19:55:10 10° NW 19:58:38 16° N 20:02:09 10° NNE visible
10 Feb - 21:42:59 10° NNW 21:47:20 21° NNE 21:51:45 10° ENE visible
10 Feb - 23:29:10 10° NNW 23:35:00 54° NE 23:40:58 10° ESE visible
11 Feb - 01:15:47 10° NW 01:21:12 36° WSW 01:26:42 10° S night (unlit)
11 Feb - 14:41:55 10° SSE 14:46:33 25° ESE 14:51:13 10° NE daylight
11 Feb - 16:26:36 10° SW 16:32:23 70° NW 16:38:16 10° NE daylight
11 Feb - 18:15:12 10° WNW 18:19:47 23° NNW 18:24:26 10° NNE visible
11 Feb - 20:04:58 10° NW 20:08:23 15° N 20:11:51 10° NE visible
11 Feb - 21:52:13 10° NNW 21:56:57 24° NNE 22:01:47 10° E visible
11 Feb - 23:38:21 10° NW 23:44:19 72° NE 23:50:25 10° SE visible
12 Feb - 01:25:21 10° NW 01:30:11 26° WSW 01:35:06 10° SSW night (unlit)
12 Feb - 14:50:19 10° S 14:55:32 36° ESE 15:00:48 10° NE daylight
12 Feb - 16:36:02 10° WSW 16:41:43 52° NW 16:47:27 10° NNE daylight
12 Feb - 18:25:12 10° WNW 18:29:25 20° NNW 18:33:42 10° NNE visible
12 Feb - 20:14:37 10° NNW 20:18:08 16° N 20:21:42 10° NE visible
12 Feb - 22:01:24 10° NNW 22:06:31 29° NNE 22:11:44 10° E visible
12 Feb - 23:47:34 10° NW 23:53:34 86° SW 23:59:42 10° SSE visible
13 Feb - 01:35:12 10° WNW 01:39:07 18° WSW 01:43:06 10° SW night (unlit)
13 Feb - 14:59:00 10° SSW 15:04:35 51° ESE 15:10:14 10° NE daylight
13 Feb - 16:45:39 10° WSW 16:51:06 40° NW 16:56:38 10° NNE daylight
13 Feb - 18:35:14 10° WNW 18:39:06 18° NNW 18:43:02 10° NNE visible
13 Feb - 20:24:06 10° NNW 20:27:53 17° NNE 20:31:41 10° NE visible
13 Feb - 22:10:34 10° NNW 22:16:01 36° NE 22:21:34 10° ESE visible
13 Feb - 23:56:50 10° NW 00:02:44 63° WSW 00:08:46 10° SSE visible
14 Feb - 01:45:45 10° W 01:47:58 12° W 01:50:13 10° WSW night (unlit)
14 Feb - 13:25:46 10° SE 13:28:26 13° ESE 13:31:06 10° ENE daylight
14 Feb - 15:07:56 10° SSW 15:13:43 71° ESE 15:19:33 10° NE daylight
14 Feb - 16:55:23 10° W 17:00:33 32° NW 17:05:48 10° NNE daylight
14 Feb - 18:45:14 10° NW 18:48:49 16° N 18:52:27 10° NNE visible
14 Feb - 20:33:28 10° NNW 20:37:35 19° NNE 20:41:44 10° ENE visible
14 Feb - 22:19:43 10° NNW 22:25:27 46° NE 22:31:17 10° ESE visible
15 Feb - 00:06:10 10° NW 00:11:51 45° WSW 00:17:39 10° S night (unlit)
15 Feb - 13:33:14 10° SSE 13:37:18 20° ESE 13:41:22 10° ENE daylight
15 Feb - 15:17:05 10° SW 15:22:54 85° NW 15:28:49 10° NE daylight
15 Feb - 17:05:15 10° W 17:10:05 26° NNW 17:15:00 10° NNE daylight
15 Feb - 18:55:07 10° NW 18:58:34 16° N 19:02:04 10° NNE visible
15 Feb - 20:42:44 10° NNW 20:47:14 22° NNE 20:51:48 10° ENE visible
15 Feb - 22:28:54 10° NNW 22:34:48 60° NE 22:40:51 10° SE visible
